#timestamp,LO_Frequency,Hit,StdDev 
1592992815.0,286046998.1,N
1592992816.0,286046998.1,N
1592992835.8,286047000.8,N
1592992855.6,286047001.0,N
1592992875.5,286046998.7,N
1592992895.3,286046998.3,N
1592992915.1,286046998.6,N
1592992935.9,286046998.7,N
1592992955.7,286046998.2,N
1592992975.5,286047001.2,N
1592992995.4,286046998.6,N
1592993015.2,286046998.9,N
1592993035.1,286046998.9,N
1592993036.0,286046998.9,N
1592993055.8,286046999.4,N
1592993075.6,286046999.4,N
1592993095.5,286046999.5,N
1592993115.3,286046999.2,N
1592993135.1,286046997.6,N
1592993155.9,286046997.4,N
1592993175.7,286046996.6,N
1592993195.6,286046999.5,N
1592993215.4,286046996.6,N
1592993235.2,286046997.4,N
1592993255.1,286046996.1,Y
1592993256.0,286046996.1,P
1592993275.8,286046999.3,N
1592993295.7,286046998.8,N
1592993315.5,286046998.3,N
1592993335.3,286046998.7,N
1592993355.2,286047000.8,N
1592993375.0,286047001.1,N
1592993375.9,286047001.1,N
1592993395.7,286046998.2,N
1592993415.6,286046999.1,N
1592993435.4,286046999.3,N
1592993455.3,286046999.4,N
1592993475.1,286046999.0,N
1592993476.0,286046999.0,N
1592993495.8,286047000.9,N
1592993515.7,286046998.5,N
1592993535.5,286047000.6,N
1592993555.3,286047002.7,N
1592993575.2,286046999.6,N
1592993595.0,286046999.3,N
1592993595.9,286046999.3,N
1592993615.8,286047001.2,N
1592993635.6,286047001.2,N
1592993655.4,286046996.6,N
1592993675.3,286047001.1,N
1592993695.1,286047000.8,N
1592993715.8,286047000.4,N
1592993735.7,286047000.7,N
1592993755.5,286046998.1,N
1592993775.4,286046996.4,N
1592993795.2,286046994.6,Y
1592993815.0,286046994.3,P
1592993815.9,286046994.3,N
1592993835.8,286046993.9,N
1592993855.6,286046995.7,N
1592993875.5,286046998.4,N
1592993895.3,286046998.1,N
1592993915.1,286046997.3,N
1592993935.9,286047000.1,N
1592993955.7,286047005.7,N
1592993975.5,286047005.8,N
1592993995.4,286047005.7,N
1592994015.2,286047007.5,N
1592994035.0,286047008.9,N
1592994035.9,286047008.9,N
1592994055.8,286047006.5,N
1592994075.6,286047009.0,N
1592994095.5,286047007.8,N
1592994115.3,286047010.6,N
1592994135.1,286047009.3,N
1592994155.9,286047008.6,N
1592994175.7,286047010.6,N
1592994195.6,286047012.4,N
1592994215.4,286047010.3,N
1592994235.2,286047009.5,N
1592994255.1,286047009.8,N
1592994256.0,286047009.8,N
1592994275.8,286047010.1,N
1592994295.6,286047011.6,N
1592994315.5,286047011.4,N
1592994335.3,286047012.6,N
1592994355.1,286047015.1,N
1592994375.9,286047017.1,N
1592994395.7,286047016.9,N
1592994415.6,286047015.8,N
1592994435.4,286047016.6,Y
1592994455.2,286047010.1,P
1592994475.1,286047012.4,P
1592994476.0,286047012.4,P
1592994495.8,286047014.0,Y
1592994515.7,286047004.4,P
1592994535.5,286047002.9,N
1592994555.3,286047007.1,N
1592994575.2,286047010.4,Y
1592994595.0,286047003.7,P
1592994595.9,286047003.7,N
1592994615.8,286046999.7,N
1592994635.6,286047002.3,N
1592994655.4,286047003.9,N
1592994675.3,286047004.2,N
1592994695.1,286047004.0,N
1592994715.8,286047002.9,N
1592994735.7,286047007.5,Y
1592994755.5,286047003.4,P
1592994775.4,286047004.4,P
1592994795.2,286047004.2,P
1592994815.0,286047004.3,Y
1592994815.9,286047004.3,P
1592994835.8,286046999.5,N
1592994855.6,286046998.2,N
1592994875.4,286047000.2,N
1592994895.3,286047001.5,N
1592994915.1,286047000.2,N
1592994935.9,286047002.3,N
1592994955.7,286047000.9,N
1592994975.5,286046999.2,N
1592994995.4,286046996.2,N
1592995015.2,286046996.0,N
1592995035.0,286046997.4,N
1592995036.0,286046997.4,N
1592995055.8,286046995.4,N
1592995075.6,286046996.3,N
1592995095.5,286046997.7,N
1592995115.3,286046996.6,N
1592995135.1,286046999.0,N
1592995155.9,286046997.5,N
1592995175.7,286046996.8,N
1592995195.5,286046996.6,N
1592995215.4,286047000.0,N
1592995235.2,286047002.6,N
1592995255.1,286047002.7,N
1592995256.0,286047002.7,N
1592995275.8,286047000.1,N
1592995295.6,286047002.0,N
1592995315.5,286046999.7,N
1592995335.3,286046999.8,N
1592995355.2,286047002.0,N
1592995375.9,286047001.3,N
1592995395.7,286047003.5,N
1592995415.6,286047002.6,N
1592995435.4,286047002.7,N
1592995455.2,286046999.9,N
1592995475.1,286047002.4,N
1592995476.0,286047002.4,N
1592995495.8,286047001.5,N
1592995515.7,286047000.4,N
1592995535.5,286046998.2,N
1592995555.3,286047000.7,N
1592995575.2,286047000.7,N
1592995595.0,286047000.7,N
1592995595.9,286047000.7,N
1592995615.7,286047000.5,N
1592995635.6,286047001.2,N
1592995655.4,286046998.5,N
1592995675.3,286046999.1,N
1592995695.1,286046997.7,N
1592995696.0,286046997.7,N
1592995715.8,286046997.6,N
1592995735.7,286046996.1,N
1592995755.5,286046993.5,Y
1592995775.4,286046992.1,P
1592995795.2,286046992.9,N
1592995815.0,286046990.4,N
1592995815.9,286046990.4,N
1592995835.8,286046990.5,N
1592995855.6,286046992.8,N
1592995875.4,286046992.1,N
1592995895.3,286046994.4,N
1592995915.1,286046994.0,N
1592995935.9,286046993.7,N
1592995955.7,286046995.6,N
1592995975.5,286046999.2,N
1592995995.4,286046999.4,N
1592996015.2,286046997.0,N
1592996035.0,286046995.4,N
1592996035.9,286046995.4,N
1592996055.8,286046997.4,N
1592996075.6,286046997.3,N
1592996095.4,286046997.0,N
1592996115.3,286046997.8,N
1592996135.1,286046998.0,N
1592996155.9,286046995.9,N
1592996175.7,286046993.6,N
1592996195.5,286046993.3,N
1592996215.4,286046992.0,N
1592996235.2,286046992.2,N
1592996255.0,286046992.4,N
1592996255.9,286046992.4,N
1592996275.8,286046993.1,N
1592996295.6,286046990.8,Y
1592996315.5,286046998.0,P
1592996335.3,286046995.2,N
1592996355.1,286046996.1,N
1592996375.9,286046994.9,Y
1592996395.7,286046998.1,P
